Regional Weather Roundup
Issued by NWS Bismarck, ND

Home | Current Version | Previous Version | Text Only | Print | Product List | Glossary On
Versions: 1 2 3 4 5 6 7 8 9 10 11 12 13 14 15 16 17 18 19 20 21 22 23 24 25 26 27 28 29 30 31 32 33 34 35 36 37 38 39 40 41 42 43 44 45 46 47 48 49 50
000
ASUS43 KBIS 280202
RWRBIS

NWR BROADCAST TEXT
NATIONAL WEATHER SERVICE BISMARCK ND
900 PM CDT THU AUG 27 2015

NOTE: "FAIR" INDICATES FEW OR NO CLOUDS BELOW 12,000 FEET WITH NO
SIGNIFICANT WEATHER AND/OR OBSTRUCTIONS TO VISIBILITY.


CITY           SKY/WX    TMP DP  RH WIND       PRES   REMARKS
WILLISTON      MOCLDY    78  64  61 CALM      29.88R
MINOT          PTCLDY    71  64  78 CALM      29.86S
MINOT AFB      PTCLDY    71  67  89 S6        29.85S
BISMARCK       CLEAR     75  62  64 S9        29.91S
DICKINSON      MOCLDY    74  59  59 SE9       29.91R
GARRISON         N/A     71  64  78 S5        29.89S
HETTINGER ARPT MOCLDY    72  57  59 SE8       29.95S
JAMESTOWN      CLEAR     70  67  90 SE7       29.90F
HAZEN          FAIR      68  63  83 S8        29.89F
OAKES            N/A     72  72 100 S9        29.93R
STANLEY        FAIR      68  68 100 SW5       29.90S
$$

CITY           SKY/WX    TMP DP  RH WIND       PRES   REMARKS
GRAND FORKS    PTCLDY    69  63  81 SE3       29.89S
GRAND FORKS AF CLEAR     67  63  89 SE6       29.90R
DEVILS LAKE    PTCLDY    70  61  73 SE7       29.88F
FARGO          PTCLDY    70  65  84 SE5       29.90S
CAVALIER       FAIR      66  63  88 S3        29.87S
GRAFTON        FAIR      68  66  94 SE7       29.88F
GWINNER          N/A     72  72 100 SW7       29.92S
LANGDON        FAIR      66  63  88 S9        29.89F FOG
$$

CITY           SKY/WX    TMP DP  RH WIND       PRES   REMARKS
ABERDEEN       CLOUDY    71  67  87 NE3       29.93S
MOBRIDGE       MOCLDY    68  65  90 E7        29.91S
BUFFALO          N/A     71  57  61 S12       29.89S
RAPID CITY     CLEAR     67  61  81 S5        30.00S
GLASGOW        PTCLDY    80  56  43 SE5       29.85S
SIDNEY         MOCLDY    73  64  73 CALM      29.88R
WOLF POINT     MOCLDY    78  63  59 CALM      29.85S
GLENDIVE       MOCLDY    79  55  44 E3        29.92R
MILES CITY     CLOUDY    86  45  23 CALM      29.91S
BAKER          PTCLDY    74  59  59 E3        29.95S
$$

CITY           SKY/WX    TMP DP  RH WIND       PRES   REMARKS
BILLINGS       CLOUDY    73  45  36 W18G28    30.04S
GREAT FALLS    CLOUDY    80  39  23 SW14      29.95F HAZE
$$




USA.gov is the U.S. government's official web portal to all federal, state and local government web resources and services.